| time (UTC) | temp F | wind direction | speed MPH | gust MPH | rain 1hr in | rain 24hr in | rain mn in | humidity % | barometer mb |
| 20260509145055 | 57 | 218 | 9.0 | 17.0 | 0.00 | 0.19 | 0.01 | 82 | 1006.2 |
| 20260509144706 | 57 | 217 | 8.0 | 13.0 | 0.00 | 0.19 | 0.01 | 83 | 1006.2 |
| 20260509144056 | 57 | 290 | 5.0 | 13.0 | 0.00 | 0.19 | 0.01 | 84 | 1006.2 |
| 20260509143552 | 56 | 97 | 4.0 | 13.0 | 0.00 | 0.19 | 0.01 | 84 | 1006.2 |
| 20260509143052 | 56 | 266 | 5.0 | 16.0 | 0.00 | 0.19 | 0.01 | 84 | 1006.2 |
| 20260509142552 | 56 | 225 | 9.0 | 16.0 | 0.00 | 0.19 | 0.01 | 85 | 1006.3 |
| 20260509142049 | 56 | 245 | 6.0 | 13.0 | 0.00 | 0.19 | 0.01 | 85 | 1006.2 |
| 20260509141548 | 56 | 267 | 7.0 | 14.0 | 0.00 | 0.19 | 0.01 | 86 | 1006.2 |
| 20260509141048 | 55 | 225 | 7.0 | 14.0 | 0.00 | 0.19 | 0.01 | 86 | 1006.3 |
| 20260509140546 | 55 | 224 | 7.0 | 15.0 | 0.00 | 0.19 | 0.01 | 86 | 1006.3 |
| 20260509140046 | 55 | 356 | 6.0 | 20.0 | 0.00 | 0.19 | 0.01 | 87 | 1006.4 |
| 20260509135545 | 55 | 206 | 8.0 | 20.0 | 0.00 | 0.20 | 0.01 | 87 | 1006.3 |
| 20260509135045 | 55 | 226 | 9.0 | 18.0 | 0.00 | 0.20 | 0.01 | 87 | 1006.2 |
| 20260509134547 | 55 | 212 | 7.0 | 21.0 | 0.00 | 0.20 | 0.01 | 88 | 1006.3 |
| 20260509134043 | 55 | 257 | 10.0 | 21.0 | 0.00 | 0.20 | 0.01 | 88 | 1006.3 |
| 20260509133542 | 55 | 214 | 10.0 | 19.0 | 0.00 | 0.20 | 0.01 | 88 | 1006.2 |
| 20260509133042 | 55 | 171 | 6.0 | 14.0 | 0.00 | 0.20 | 0.01 | 89 | 1006.4 |
| 20260509132541 | 55 | 273 | 6.0 | 18.0 | 0.00 | 0.20 | 0.01 | 89 | 1006.5 |
| 20260509132040 | 54 | 212 | 10.0 | 18.0 | 0.00 | 0.20 | 0.01 | 89 | 1006.4 |
| 20260509131541 | 54 | 252 | 7.0 | 17.0 | 0.00 | 0.20 | 0.01 | 89 | 1006.3 |
| 20260509131037 | 54 | 202 | 8.0 | 15.0 | 0.00 | 0.20 | 0.01 | 89 | 1006.3 |
| 20260509130536 | 54 | 240 | 6.0 | 14.0 | 0.00 | 0.20 | 0.01 | 89 | 1006.3 |
| 20260509130036 | 53 | 216 | 7.0 | 17.0 | 0.00 | 0.20 | 0.01 | 89 | 1006.3 |
| 20260509125534 | 54 | 213 | 5.0 | 17.0 | 0.00 | 0.22 | 0.01 | 89 | 1006.4 |
| 20260509125034 | 53 | 218 | 6.0 | 16.0 | 0.00 | 0.22 | 0.01 | 89 | 1006.5 |
| 20260509124547 | 53 | 231 | 7.0 | 16.0 | 0.00 | 0.22 | 0.01 | 89 | 1006.5 |
| 20260509124036 | 53 | 216 | 6.0 | 16.0 | 0.00 | 0.22 | 0.01 | 89 | 1006.5 |
| 20260509123533 | 53 | 194 | 7.0 | 16.0 | 0.00 | 0.22 | 0.01 | 89 | 1006.5 |
| 20260509123033 | 53 | 228 | 6.0 | 14.0 | 0.00 | 0.22 | 0.01 | 89 | 1006.6 |
| 20260509122531 | 53 | 182 | 6.0 | 14.0 | 0.00 | 0.22 | 0.01 | 89 | 1006.7 |
| 20260509122030 | 53 | 197 | 4.0 | 12.0 | 0.00 | 0.22 | 0.01 | 89 | 1006.7 |
| 20260509121533 | 53 | 240 | 6.0 | 12.0 | 0.00 | 0.22 | 0.01 | 89 | 1006.8 |
| 20260509121028 | 53 | 233 | 6.0 | 13.0 | 0.00 | 0.22 | 0.01 | 89 | 1006.8 |
| 20260509120527 | 53 | 218 | 7.0 | 13.0 | 0.00 | 0.22 | 0.01 | 89 | 1006.7 |
| 20260509120027 | 53 | 204 | 6.0 | 11.0 | 0.00 | 0.22 | 0.01 | 89 | 1006.6 |
| 20260509115525 | 53 | 221 | 5.0 | 10.0 | 0.00 | 0.22 | 0.01 | 89 | 1006.7 |
| 20260509115026 | 52 | 245 | 4.0 | 14.0 | 0.00 | 0.22 | 0.01 | 89 | 1006.7 |
| 20260509114525 | 52 | 208 | 7.0 | 14.0 | 0.00 | 0.22 | 0.01 | 89 | 1006.8 |
| 20260509114023 | 52 | 199 | 5.0 | 12.0 | 0.00 | 0.22 | 0.01 | 89 | 1006.8 |
| 20260509113529 | 52 | 209 | 5.0 | 12.0 | 0.00 | 0.22 | 0.01 | 89 | 1006.8 |
| 20260509113023 | 52 | 184 | 4.0 | 10.0 | 0.00 | 0.22 | 0.01 | 89 | 1006.7 |
| 20260509112522 | 52 | 215 | 3.0 | 10.0 | 0.00 | 0.22 | 0.01 | 89 | 1006.7 |
| 20260509112022 | 52 | 196 | 5.0 | 10.0 | 0.00 | 0.22 | 0.01 | 89 | 1006.7 |
| 20260509111520 | 52 | 185 | 5.0 | 10.0 | 0.00 | 0.22 | 0.01 | 89 | 1006.7 |
| 20260509111022 | 52 | 167 | 4.0 | 9.0 | 0.00 | 0.22 | 0.01 | 89 | 1006.6 |
| 20260509110618 | 52 | 216 | 5.0 | 10.0 | 0.00 | 0.22 | 0.01 | 89 | 1006.6 |
| 20260509110018 | 52 | 211 | 5.0 | 10.0 | 0.00 | 0.22 | 0.01 | 89 | 1006.6 |
| 20260509105517 | 52 | 218 | 3.0 | 10.0 | 0.00 | 0.22 | 0.01 | 89 | 1006.5 |
| 20260509105017 | 52 | 180 | 5.0 | 11.0 | 0.00 | 0.22 | 0.01 | 89 | 1006.5 |
| 20260509104529 | 52 | 207 | 5.0 | 11.0 | 0.00 | 0.22 | 0.01 | 89 | 1006.5 |
| 20260509104014 | 52 | 173 | 3.0 | 8.0 | 0.00 | 0.22 | 0.01 | 89 | 1006.5 |
| 20260509103513 | 52 | 196 | 4.0 | 8.0 | 0.00 | 0.22 | 0.01 | 89 | 1006.5 |
| 20260509103012 | 52 | 229 | 3.0 | 7.0 | 0.00 | 0.22 | 0.01 | 89 | 1006.5 |
| 20260509102510 | 52 | 162 | 2.0 | 10.0 | 0.00 | 0.22 | 0.01 | 89 | 1006.4 |
| 20260509102011 | 52 | 192 | 3.0 | 10.0 | 0.00 | 0.22 | 0.01 | 89 | 1006.5 |
| 20260509101509 | 52 | 186 | 5.0 | 9.0 | 0.00 | 0.22 | 0.01 | 89 | 1006.5 |
| 20260509101007 | 52 | 217 | 3.0 | 9.0 | 0.00 | 0.22 | 0.01 | 89 | 1006.5 |
| 20260509100505 | 52 | 173 | 3.0 | 8.0 | 0.00 | 0.22 | 0.01 | 89 | 1006.5 |
| 20260509100005 | 52 | 241 | 4.0 | 10.0 | 0.00 | 0.22 | 0.01 | 89 | 1006.6 |
| 20260509095504 | 52 | 188 | 4.0 | 10.0 | 0.00 | 0.22 | 0.01 | 89 | 1006.6 |
| 20260509095003 | 52 | 194 | 4.0 | 9.0 | 0.00 | 0.22 | 0.01 | 89 | 1006.6 |
| 20260509094505 | 52 | 206 | 4.0 | 10.0 | 0.00 | 0.22 | 0.01 | 89 | 1006.6 |
| 20260509094100 | 52 | 140 | 4.0 | 11.0 | 0.00 | 0.22 | 0.01 | 89 | 1006.7 |
| 20260509093559 | 52 | 210 | 4.0 | 14.0 | 0.00 | 0.22 | 0.01 | 89 | 1006.7 |
| 20260509093057 | 52 | 173 | 6.0 | 14.0 | 0.00 | 0.22 | 0.01 | 89 | 1006.7 |
| 20260509092555 | 52 | 212 | 4.0 | 8.0 | 0.00 | 0.22 | 0.01 | 89 | 1006.7 |
| 20260509092056 | 52 | 218 | 3.0 | 10.0 | 0.00 | 0.22 | 0.01 | 89 | 1006.7 |
| 20260509091553 | 52 | 183 | 3.0 | 10.0 | 0.00 | 0.22 | 0.01 | 89 | 1006.8 |
| 20260509091054 | 52 | 182 | 6.0 | 13.0 | 0.00 | 0.22 | 0.01 | 89 | 1006.8 |
| 20260509090550 | 52 | 173 | 5.0 | 13.0 | 0.00 | 0.22 | 0.01 | 89 | 1006.9 |
| 20260509090049 | 52 | 156 | 5.0 | 13.0 | 0.00 | 0.22 | 0.01 | 89 | 1006.9 |
| 20260509085548 | 52 | 173 | 6.0 | 15.0 | 0.00 | 0.22 | 0.01 | 89 | 1007.0 |
| 20260509085048 | 51 | 212 | 7.0 | 15.0 | 0.00 | 0.22 | 0.01 | 89 | 1006.9 |
| 20260509084553 | 51 | 189 | 6.0 | 12.0 | 0.00 | 0.22 | 0.01 | 89 | 1007.0 |
| 20260509084048 | 51 | 218 | 6.0 | 13.0 | 0.00 | 0.22 | 0.01 | 89 | 1007.1 |
| 20260509083549 | 51 | 215 | 7.0 | 14.0 | 0.00 | 0.22 | 0.01 | 89 | 1007.1 |
| 20260509083047 | 51 | 207 | 5.0 | 14.0 | 0.00 | 0.22 | 0.01 | 89 | 1007.2 |
| 20260509082546 | 51 | 217 | 7.0 | 14.0 | 0.00 | 0.22 | 0.01 | 89 | 1007.1 |
| 20260509082049 | 51 | 173 | 5.0 | 10.0 | 0.00 | 0.22 | 0.01 | 88 | 1007.2 |
| 20260509081548 | 51 | 257 | 5.0 | 11.0 | 0.00 | 0.22 | 0.01 | 88 | 1007.2 |
| 20260509081048 | 51 | 207 | 5.0 | 11.0 | 0.00 | 0.22 | 0.01 | 88 | 1007.2 |
| 20260509080547 | 51 | 231 | 5.0 | 11.0 | 0.00 | 0.22 | 0.01 | 88 | 1007.2 |
| 20260509080046 | 51 | 220 | 6.0 | 14.0 | 0.00 | 0.22 | 0.01 | 88 | 1007.2 |
| 20260509075545 | 52 | 166 | 5.0 | 14.0 | 0.00 | 0.22 | 0.01 | 88 | 1007.2 |
| 20260509075044 | 52 | 196 | 5.0 | 10.0 | 0.00 | 0.22 | 0.01 | 88 | 1007.2 |
| 20260509074546 | 52 | 210 | 5.0 | 11.0 | 0.00 | 0.22 | 0.01 | 88 | 1007.3 |
| 20260509074043 | 52 | 165 | 4.0 | 14.0 | 0.00 | 0.22 | 0.01 | 88 | 1007.3 |
| 20260509073542 | 52 | 213 | 6.0 | 14.0 | 0.00 | 0.22 | 0.01 | 88 | 1007.2 |
| 20260509073043 | 51 | 213 | 5.0 | 12.0 | 0.00 | 0.22 | 0.01 | 88 | 1007.2 |
| 20260509072542 | 51 | 183 | 4.0 | 11.0 | 0.00 | 0.22 | 0.01 | 88 | 1007.2 |
| 20260509072041 | 51 | 232 | 4.0 | 11.0 | 0.00 | 0.22 | 0.01 | 88 | 1007.3 |
| 20260509071545 | 51 | 206 | 4.0 | 10.0 | 0.00 | 0.22 | 0.01 | 88 | 1007.3 |
| 20260509071044 | 51 | 180 | 5.0 | 13.0 | 0.00 | 0.22 | 0.01 | 88 | 1007.4 |
| 20260509070540 | 51 | 189 | 3.0 | 14.0 | 0.00 | 0.22 | 0.01 | 88 | 1007.4 |
| 20260509070041 | 51 | 217 | 7.0 | 14.0 | 0.00 | 0.22 | 0.01 | 88 | 1007.4 |
| 20260509065537 | 51 | 217 | 7.0 | 15.0 | 0.00 | 0.22 | 0.01 | 88 | 1007.5 |
| 20260509065037 | 51 | 192 | 5.0 | 15.0 | 0.00 | 0.22 | 0.01 | 88 | 1007.5 |
| 20260509064537 | 51 | 197 | 8.0 | 14.0 | 0.00 | 0.22 | 0.01 | 88 | 1007.6 |
| 20260509064037 | 51 | 203 | 6.0 | 15.0 | 0.00 | 0.22 | 0.01 | 88 | 1007.6 |
| 20260509063535 | 51 | 188 | 5.0 | 15.0 | 0.00 | 0.22 | 0.01 | 88 | 1007.7 |
| 20260509063038 | 51 | 243 | 6.0 | 16.0 | 0.00 | 0.22 | 0.01 | 88 | 1007.7 |
| 20260509062535 | 51 | 218 | 8.0 | 17.0 | 0.00 | 0.22 | 0.01 | 88 | 1007.7 |
| 20260509062034 | 51 | 150 | 7.0 | 17.0 | 0.00 | 0.22 | 0.01 | 88 | 1007.8 |
| 20260509061544 | 51 | 226 | 8.0 | 15.0 | 0.00 | 0.22 | 0.01 | 88 | 1007.9 |
| 20260509061032 | 51 | 214 | 6.0 | 15.0 | 0.00 | 0.22 | 0.01 | 88 | 1008.0 |
| 20260509060531 | 51 | 191 | 7.0 | 14.0 | 0.00 | 0.22 | 0.01 | 88 | 1008.0 |
| 20260509060030 | 51 | 189 | 5.0 | 15.0 | 0.00 | 0.22 | 0.01 | 88 | 1008.1 |
| 20260509055529 | 51 | 301 | 6.0 | 15.0 | 0.00 | 0.22 | 0.01 | 88 | 1008.2 |
| 20260509055029 | 51 | 197 | 8.0 | 15.0 | 0.00 | 0.22 | 0.01 | 88 | 1008.1 |
| 20260509054529 | 51 | 215 | 7.0 | 17.0 | 0.00 | 0.22 | 0.01 | 88 | 1008.3 |
| 20260509054030 | 51 | 218 | 6.0 | 17.0 | 0.00 | 0.22 | 0.01 | 88 | 1008.3 |
| 20260509053527 | 51 | 213 | 7.0 | 17.0 | 0.00 | 0.22 | 0.01 | 88 | 1008.3 |
| 20260509053030 | 51 | 91 | 5.0 | 11.0 | 0.00 | 0.22 | 0.01 | 88 | 1008.3 |
| 20260509052526 | 51 | 230 | 6.0 | 11.0 | 0.00 | 0.22 | 0.01 | 87 | 1008.3 |
| 20260509052026 | 51 | 217 | 5.0 | 14.0 | 0.00 | 0.22 | 0.01 | 87 | 1008.4 |
| 20260509051531 | 51 | 199 | 5.0 | 14.0 | 0.00 | 0.22 | 0.01 | 87 | 1008.4 |
| 20260509051024 | 51 | 196 | 5.0 | 13.0 | 0.00 | 0.22 | 0.01 | 87 | 1008.4 |
| 20260509050524 | 51 | 184 | 7.0 | 13.0 | 0.00 | 0.22 | 0.01 | 87 | 1008.5 |
| 20260509050028 | 51 | 208 | 6.0 | 13.0 | 0.01 | 0.22 | 0.01 | 87 | 1008.4 |
| 20260509045522 | 51 | 218 | 4.0 | 11.0 | 0.01 | 0.22 | 0.01 | 87 | 1008.5 |
| 20260509045022 | 51 | 195 | 4.0 | 11.0 | 0.01 | 0.22 | 0.01 | 87 | 1008.5 |
| 20260509044529 | 51 | 178 | 6.0 | 11.0 | 0.01 | 0.22 | 0.01 | 87 | 1008.5 |
| 20260509044020 | 51 | 209 | 4.0 | 11.0 | 0.01 | 0.22 | 0.01 | 87 | 1008.5 |
| 20260509043519 | 51 | 220 | 4.0 | 12.0 | 0.01 | 0.22 | 0.01 | 87 | 1008.6 |
| 20260509043019 | 51 | 247 | 7.0 | 12.0 | 0.01 | 0.22 | 0.01 | 87 | 1008.7 |
| 20260509042520 | 51 | 162 | 5.0 | 12.0 | 0.01 | 0.22 | 0.01 | 87 | 1008.7 |
| 20260509042018 | 51 | 225 | 4.0 | 21.0 | 0.01 | 0.22 | 0.01 | 87 | 1008.7 |
| 20260509041517 | 51 | 179 | 8.0 | 21.0 | 0.01 | 0.22 | 0.01 | 87 | 1008.8 |
| 20260509041016 | 51 | 162 | 6.0 | 13.0 | 0.01 | 0.22 | 0.01 | 87 | 1009.0 |
| 20260509040514 | 51 | 168 | 3.0 | 10.0 | 0.02 | 0.22 | 0.01 | 87 | 1009.0 |
| 20260509040016 | 51 | 173 | 5.0 | 11.0 | 0.01 | 0.21 | 0.00 | 87 | 1009.2 |
| 20260509035515 | 51 | 215 | 6.0 | 12.0 | 0.01 | 0.21 | 0.21 | 87 | 1009.2 |
| 20260509035015 | 51 | 239 | 7.0 | 14.0 | 0.01 | 0.21 | 0.21 | 87 | 1009.1 |
| 20260509034515 | 51 | 194 | 7.0 | 14.0 | 0.01 | 0.21 | 0.21 | 87 | 1009.1 |
| 20260509034012 | 51 | 208 | 6.0 | 14.0 | 0.01 | 0.21 | 0.21 | 87 | 1009.2 |
| 20260509033512 | 51 | 221 | 5.0 | 14.0 | 0.01 | 0.21 | 0.21 | 87 | 1009.1 |
| 20260509033012 | 51 | 232 | 7.0 | 14.0 | 0.01 | 0.21 | 0.21 | 87 | 1009.3 |
| 20260509032515 | 51 | 192 | 6.0 | 14.0 | 0.01 | 0.21 | 0.21 | 87 | 1009.3 |
| 20260509032011 | 51 | 191 | 6.0 | 14.0 | 0.01 | 0.21 | 0.21 | 87 | 1009.4 |
| 20260509031511 | 51 | 197 | 6.0 | 15.0 | 0.01 | 0.21 | 0.21 | 87 | 1009.4 |
| 20260509031111 | 51 | 222 | 7.0 | 15.0 | 0.01 | 0.21 | 0.21 | 87 | 1009.6 |
| 20260509030511 | 51 | 223 | 7.0 | 17.0 | 0.00 | 0.20 | 0.20 | 87 | 1009.6 |
| 20260509030011 | 51 | 218 | 7.0 | 17.0 | 0.00 | 0.20 | 0.20 | 87 | 1009.6 |
| 20260509025510 | 51 | 192 | 8.0 | 17.0 | 0.00 | 0.20 | 0.20 | 87 | 1009.6 |
| 20260509025010 | 51 | 205 | 7.0 | 17.0 | 0.00 | 0.20 | 0.20 | 87 | 1009.7 |
| 20260509024510 | 51 | 204 | 5.0 | 11.0 | 0.00 | 0.20 | 0.20 | 87 | 1009.6 |
| 20260509024013 | 50 | 194 | 6.0 | 10.0 | 0.00 | 0.20 | 0.20 | 87 | 1009.6 |
| 20260509023513 | 50 | 206 | 5.0 | 14.0 | 0.00 | 0.20 | 0.20 | 87 | 1009.6 |
| 20260509023015 | 50 | 214 | 6.0 | 14.0 | 0.00 | 0.20 | 0.20 | 87 | 1009.7 |
| 20260509022509 | 50 | 203 | 8.0 | 14.0 | 0.00 | 0.20 | 0.20 | 87 | 1009.7 |
| 20260509022009 | 50 | 190 | 6.0 | 13.0 | 0.00 | 0.20 | 0.20 | 87 | 1009.6 |
| 20260509021514 | 50 | 187 | 4.0 | 16.0 | 0.00 | 0.20 | 0.20 | 87 | 1009.6 |
| 20260509021012 | 50 | 199 | 7.0 | 16.0 | 0.00 | 0.20 | 0.20 | 87 | 1009.7 |
| 20260509020511 | 50 | 214 | 3.0 | 12.0 | 0.00 | 0.20 | 0.20 | 87 | 1009.7 |
| 20260509020008 | 50 | 215 | 8.0 | 12.0 | 0.00 | 0.20 | 0.20 | 87 | 1009.6 |
| 20260509015508 | 50 | 203 | 5.0 | 10.0 | 0.00 | 0.20 | 0.20 | 87 | 1009.6 |
| 20260509015008 | 50 | 267 | 4.0 | 10.0 | 0.00 | 0.20 | 0.20 | 87 | 1009.7 |
| 20260509014508 | 50 | 160 | 4.0 | 12.0 | 0.00 | 0.20 | 0.20 | 87 | 1009.6 |
| 20260509014007 | 50 | 196 | 6.0 | 12.0 | 0.01 | 0.20 | 0.20 | 87 | 1009.6 |
| 20260509013507 | 50 | 221 | 4.0 | 10.0 | 0.01 | 0.20 | 0.20 | 86 | 1009.5 |
| 20260509013021 | 50 | 240 | 6.0 | 12.0 | 0.01 | 0.20 | 0.20 | 87 | 1009.7 |
| 20260509012509 | 50 | 180 | 5.0 | 12.0 | 0.01 | 0.20 | 0.20 | 86 | 1009.5 |
| 20260509012007 | 50 | 199 | 4.0 | 10.0 | 0.02 | 0.20 | 0.20 | 86 | 1009.7 |
| 20260509011506 | 50 | 183 | 6.0 | 12.0 | 0.02 | 0.20 | 0.20 | 86 | 1009.6 |
| 20260509011005 | 50 | 221 | 4.0 | 13.0 | 0.02 | 0.20 | 0.20 | 86 | 1009.6 |
| 20260509010506 | 50 | 166 | 7.0 | 13.0 | 0.03 | 0.20 | 0.20 | 86 | 1009.6 |
| 20260509010005 | 50 | 216 | 6.0 | 14.0 | 0.04 | 0.20 | 0.20 | 86 | 1009.6 |
| 20260509005508 | 50 | 191 | 7.0 | 14.0 | 0.04 | 0.20 | 0.20 | 86 | 1009.5 |
| 20260509005005 | 50 | 173 | 7.0 | 15.0 | 0.04 | 0.20 | 0.20 | 86 | 1009.5 |
| 20260509004506 | 50 | 210 | 7.0 | 15.0 | 0.04 | 0.20 | 0.20 | 86 | 1009.6 |
| 20260509004005 | 50 | 202 | 8.0 | 12.0 | 0.04 | 0.19 | 0.19 | 86 | 1009.5 |
| 20260509003508 | 50 | 178 | 6.0 | 12.0 | 0.05 | 0.19 | 0.19 | 86 | 1009.4 |
| 20260509003004 | 50 | 237 | 3.0 | 13.0 | 0.06 | 0.19 | 0.19 | 86 | 1009.3 |
| 20260509002505 | 50 | 185 | 6.0 | 14.0 | 0.06 | 0.19 | 0.19 | 86 | 1009.2 |
| 20260509002003 | 50 | 211 | 7.0 | 14.0 | 0.06 | 0.18 | 0.18 | 85 | 1009.3 |
| 20260509001502 | 50 | 235 | 9.0 | 14.0 | 0.07 | 0.18 | 0.18 | 85 | 1009.4 |
| 20260509001103 | 50 | 223 | 7.0 | 13.0 | 0.08 | 0.18 | 0.18 | 85 | 1009.5 |
| 20260509000502 | 50 | 211 | 7.0 | 13.0 | 0.07 | 0.17 | 0.17 | 85 | 1009.4 |
| 20260509000002 | 50 | 190 | 4.0 | 9.0 | 0.06 | 0.16 | 0.16 | 85 | 1009.3 |
| 20260508235502 | 50 | 163 | 2.0 | 10.0 | 0.07 | 0.16 | 0.16 | 84 | 1009.4 |
| 20260508235104 | 51 | 183 | 2.0 | 10.0 | 0.07 | 0.16 | 0.16 | 84 | 1009.4 |
| 20260508234504 | 51 | 217 | 4.0 | 9.0 | 0.08 | 0.16 | 0.16 | 84 | 1009.4 |
| 20260508234000 | 51 | 188 | 3.0 | 8.0 | 0.07 | 0.15 | 0.15 | 84 | 1009.4 |
| 20260508233600 | 51 | 213 | 4.0 | 9.0 | 0.06 | 0.14 | 0.14 | 84 | 1009.6 |
| 20260508233104 | 51 | 195 | 4.0 | 9.0 | 0.06 | 0.13 | 0.13 | 84 | 1009.5 |
| 20260508232559 | 51 | 211 | 4.0 | 8.0 | 0.06 | 0.13 | 0.13 | 83 | 1009.5 |
| 20260508232059 | 51 | 201 | 3.0 | 10.0 | 0.06 | 0.12 | 0.12 | 83 | 1009.3 |
| 20260508231604 | 51 | 227 | 5.0 | 10.0 | 0.07 | 0.12 | 0.12 | 83 | 1009.5 |
| 20260508231058 | 51 | 238 | 4.0 | 8.0 | 0.05 | 0.10 | 0.10 | 83 | 1009.5 |
| 20260508230557 | 51 | 213 | 4.0 | 8.0 | 0.06 | 0.10 | 0.10 | 82 | 1009.4 |
| 20260508225557 | 51 | 124 | 3.0 | 8.0 | 0.06 | 0.09 | 0.09 | 82 | 1009.6 |
| 20260508225059 | 51 | 236 | 4.0 | 8.0 | 0.05 | 0.08 | 0.08 | 81 | 1009.7 |
| 20260508224607 | 51 | 165 | 3.0 | 9.0 | 0.05 | 0.08 | 0.08 | 81 | 1009.6 |
| 20260508224056 | 52 | 233 | 5.0 | 10.0 | 0.05 | 0.08 | 0.08 | 81 | 1009.5 |
| 20260508223557 | 52 | 209 | 5.0 | 10.0 | 0.05 | 0.08 | 0.08 | 80 | 1009.7 |
| 20260508223056 | 52 | 182 | 4.0 | 9.0 | 0.04 | 0.07 | 0.07 | 80 | 1009.5 |
| 20260508222555 | 52 | 233 | 3.0 | 9.0 | 0.03 | 0.06 | 0.06 | 79 | 1009.5 |
| 20260508222058 | 52 | 213 | 4.0 | 10.0 | 0.03 | 0.06 | 0.06 | 79 | 1009.7 |
| 20260508221603 | 52 | 229 | 4.0 | 11.0 | 0.02 | 0.05 | 0.05 | 78 | 1009.7 |
| 20260508221055 | 52 | 211 | 6.0 | 11.0 | 0.02 | 0.05 | 0.05 | 78 | 1009.7 |
| 20260508220553 | 52 | 240 | 2.0 | 12.0 | 0.01 | 0.04 | 0.04 | 77 | 1009.6 |
| 20260508220054 | 52 | 173 | 5.0 | 12.0 | 0.01 | 0.04 | 0.04 | 77 | 1009.7 |
| 20260508215553 | 52 | 239 | 5.0 | 12.0 | 0.00 | 0.03 | 0.03 | 77 | 1009.5 |
| 20260508215053 | 53 | 229 | 6.0 | 12.0 | 0.00 | 0.03 | 0.03 | 77 | 1009.1 |
| 20260508214553 | 53 | 248 | 4.0 | 10.0 | 0.00 | 0.03 | 0.03 | 77 | 1009.3 |
| 20260508214053 | 53 | 160 | 5.0 | 10.0 | 0.00 | 0.03 | 0.03 | 77 | 1009.2 |
| 20260508213551 | 53 | 201 | 4.0 | 12.0 | 0.00 | 0.03 | 0.03 | 76 | 1009.2 |
| 20260508213111 | 53 | 259 | 6.0 | 15.0 | 0.00 | 0.03 | 0.03 | 76 | 1009.6 |
| 20260508212551 | 53 | 247 | 9.0 | 15.0 | 0.00 | 0.03 | 0.03 | 76 | 1009.5 |
| 20260508212051 | 53 | 236 | 7.0 | 15.0 | 0.00 | 0.03 | 0.03 | 76 | 1009.6 |
| 20260508211551 | 53 | 253 | 6.0 | 12.0 | 0.00 | 0.03 | 0.03 | 76 | 1009.6 |
| 20260508211053 | 53 | 225 | 6.0 | 12.0 | 0.00 | 0.03 | 0.03 | 76 | 1009.6 |
| 20260508210552 | 54 | 224 | 2.0 | 10.0 | 0.00 | 0.03 | 0.03 | 77 | 1009.4 |
| 20260508210049 | 54 | 356 | 4.0 | 17.0 | 0.00 | 0.03 | 0.03 | 77 | 1009.7 |
| 20260508205548 | 54 | 230 | 7.0 | 17.0 | 0.00 | 0.03 | 0.03 | 76 | 1009.8 |
| 20260508205048 | 54 | 220 | 9.0 | 14.0 | 0.00 | 0.03 | 0.03 | 76 | 1009.9 |
| 20260508204550 | 54 | 226 | 6.0 | 15.0 | 0.00 | 0.03 | 0.03 | 76 | 1009.9 |
| 20260508204050 | 54 | 236 | 7.0 | 16.0 | 0.00 | 0.03 | 0.03 | 75 | 1009.9 |
| 20260508203547 | 54 | 232 | 8.0 | 20.0 | 0.00 | 0.03 | 0.03 | 74 | 1009.8 |
| 20260508203055 | 55 | 177 | 11.0 | 22.0 | 0.00 | 0.03 | 0.03 | 72 | 1010.3 |
| 20260508202545 | 55 | 231 | 13.0 | 25.0 | 0.00 | 0.03 | 0.03 | 71 | 1010.3 |
| 20260508202045 | 56 | 225 | 9.0 | 26.0 | 0.00 | 0.03 | 0.03 | 70 | 1010.4 |
| 20260508201545 | 56 | 248 | 11.0 | 26.0 | 0.00 | 0.03 | 0.03 | 69 | 1010.4 |
| 20260508201044 | 56 | 225 | 14.0 | 24.0 | 0.00 | 0.03 | 0.03 | 68 | 1010.4 |
| 20260508200545 | 57 | 234 | 8.0 | 21.0 | 0.00 | 0.03 | 0.03 | 68 | 1010.3 |
| 20260508200051 | 57 | 208 | 10.0 | 26.0 | 0.00 | 0.03 | 0.03 | 67 | 1010.4 |
| 20260508195544 | 57 | 220 | 9.0 | 26.0 | 0.00 | 0.03 | 0.03 | 66 | 1010.4 |
| 20260508195044 | 57 | 238 | 12.0 | 20.0 | 0.00 | 0.03 | 0.03 | 67 | 1010.4 |
| 20260508194543 | 57 | 235 | 9.0 | 19.0 | 0.00 | 0.03 | 0.03 | 67 | 1010.3 |
| 20260508194042 | 57 | 241 | 9.0 | 21.0 | 0.00 | 0.03 | 0.03 | 66 | 1010.3 |
| 20260508193542 | 57 | 220 | 11.0 | 21.0 | 0.00 | 0.03 | 0.03 | 66 | 1010.3 |
| 20260508193115 | 57 | 215 | 11.0 | 21.0 | 0.00 | 0.03 | 0.03 | 66 | 1010.4 |
| 20260508192541 | 58 | 214 | 13.0 | 21.0 | 0.00 | 0.03 | 0.03 | 65 | 1010.4 |
| 20260508192042 | 58 | 207 | 9.0 | 17.0 | 0.00 | 0.03 | 0.03 | 65 | 1010.4 |
| 20260508191540 | 58 | 231 | 8.0 | 19.0 | 0.00 | 0.03 | 0.03 | 65 | 1010.4 |
| 20260508191039 | 58 | 226 | 12.0 | 19.0 | 0.00 | 0.03 | 0.03 | 64 | 1010.6 |
| 20260508190539 | 58 | 163 | 7.0 | 19.0 | 0.00 | 0.03 | 0.03 | 65 | 1010.5 |
| 20260508190116 | 58 | 230 | 8.0 | 21.0 | 0.00 | 0.03 | 0.03 | 64 | 1010.6 |
| 20260508185537 | 58 | 223 | 13.0 | 21.0 | 0.00 | 0.03 | 0.03 | 64 | 1010.7 |
| 20260508185037 | 59 | 215 | 11.0 | 24.0 | 0.00 | 0.03 | 0.03 | 62 | 1010.7 |
| 20260508184544 | 59 | 259 | 11.0 | 24.0 | 0.00 | 0.03 | 0.03 | 63 | 1010.7 |
| 20260508184036 | 60 | 250 | 10.0 | 18.0 | 0.00 | 0.03 | 0.03 | 62 | 1010.8 |
| 20260508183536 | 60 | 306 | 8.0 | 17.0 | 0.00 | 0.03 | 0.03 | 63 | 1010.7 |
| 20260508183039 | 60 | 203 | 9.0 | 28.0 | 0.00 | 0.03 | 0.03 | 64 | 1010.9 |
| 20260508182535 | 60 | 279 | 7.0 | 28.0 | 0.00 | 0.03 | 0.03 | 62 | 1010.9 |
| 20260508182034 | 60 | 243 | 6.0 | 19.0 | 0.00 | 0.03 | 0.03 | 66 | 1010.8 |
| 20260508181533 | 59 | 221 | 9.0 | 20.0 | 0.00 | 0.03 | 0.03 | 66 | 1010.9 |
| 20260508181034 | 59 | 229 | 11.0 | 20.0 | 0.00 | 0.03 | 0.03 | 66 | 1011.0 |
| 20260508180529 | 58 | 214 | 11.0 | 23.0 | 0.00 | 0.03 | 0.03 | 68 | 1011.1 |
| 20260508180031 | 58 | 206 | 9.0 | 23.0 | 0.00 | 0.03 | 0.03 | 68 | 1011.2 |
| 20260508175527 | 57 | 205 | 11.0 | 21.0 | 0.00 | 0.03 | 0.03 | 68 | 1011.4 |
| 20260508175028 | 56 | 190 | 10.0 | 21.0 | 0.00 | 0.03 | 0.03 | 68 | 1011.3 |
| 20260508174535 | 56 | 309 | 9.0 | 22.0 | 0.00 | 0.03 | 0.03 | 67 | 1011.3 |
| 20260508174031 | 55 | 226 | 7.0 | 22.0 | 0.00 | 0.03 | 0.03 | 67 | 1011.5 |
| 20260508173525 | 55 | 240 | 7.0 | 22.0 | 0.00 | 0.03 | 0.03 | 69 | 1011.5 |
| 20260508173025 | 55 | 316 | 4.0 | 9.0 | 0.00 | 0.03 | 0.03 | 69 | 1011.7 |
| 20260508172524 | 55 | 341 | 4.0 | 8.0 | 0.00 | 0.03 | 0.03 | 68 | 1011.6 |
| 20260508172024 | 56 | 326 | 1.0 | 6.0 | 0.00 | 0.03 | 0.03 | 68 | 1011.5 |
| 20260508171526 | 56 | 13 | 3.0 | 11.0 | 0.00 | 0.03 | 0.03 | 67 | 1011.5 |
| 20260508171023 | 56 | 112 | 2.0 | 11.0 | 0.00 | 0.03 | 0.03 | 66 | 1011.6 |
| 20260508170522 | 57 | 356 | 4.0 | 9.0 | 0.00 | 0.03 | 0.03 | 65 | 1011.6 |
| 20260508170022 | 57 | 144 | 3.0 | 9.0 | 0.00 | 0.03 | 0.03 | 65 | 1011.7 |
| 20260508165521 | 57 | 152 | 3.0 | 11.0 | 0.00 | 0.03 | 0.03 | 64 | 1011.8 |
| 20260508165020 | 57 | 324 | 4.0 | 15.0 | 0.00 | 0.03 | 0.03 | 62 | 1011.7 |
| 20260508164528 | 57 | 317 | 3.0 | 21.0 | 0.00 | 0.03 | 0.03 | 63 | 1011.7 |
| 20260508164020 | 57 | 259 | 7.0 | 21.0 | 0.00 | 0.03 | 0.03 | 63 | 1011.7 |
| 20260508163519 | 57 | 227 | 9.0 | 19.0 | 0.00 | 0.03 | 0.03 | 65 | 1011.7 |
| 20260508163019 | 57 | 309 | 2.0 | 7.0 | 0.00 | 0.03 | 0.03 | 64 | 1011.7 |
| 20260508162519 | 57 | 231 | 3.0 | 7.0 | 0.00 | 0.03 | 0.03 | 64 | 1011.9 |
| 20260508162018 | 57 | 240 | 1.0 | 7.0 | 0.00 | 0.03 | 0.03 | 63 | 1011.9 |
| 20260508161535 | 57 | 303 | 2.0 | 13.0 | 0.00 | 0.03 | 0.03 | 63 | 1011.9 |
| 20260508161018 | 57 | 215 | 4.0 | 15.0 | 0.00 | 0.03 | 0.03 | 63 | 1011.9 |
| 20260508160520 | 58 | 250 | 5.0 | 23.0 | 0.00 | 0.03 | 0.03 | 62 | 1012.0 |
| 20260508160018 | 58 | 340 | 7.0 | 23.0 | 0.00 | 0.03 | 0.03 | 63 | 1012.0 |
| 20260508155517 | 58 | 205 | 7.0 | 12.0 | 0.00 | 0.03 | 0.03 | 62 | 1011.9 |
| 20260508155017 | 58 | 315 | 5.0 | 11.0 | 0.00 | 0.03 | 0.03 | 65 | 1012.0 |
| 20260508154515 | 57 | 344 | 2.0 | 6.0 | 0.00 | 0.03 | 0.03 | 65 | 1011.9 |
| 20260508154014 | 57 | 239 | 2.0 | 12.0 | 0.00 | 0.03 | 0.03 | 65 | 1011.9 |
| 20260508153513 | 57 | 288 | 3.0 | 12.0 | 0.00 | 0.03 | 0.03 | 64 | 1012.0 |
| 20260508153012 | 57 | 309 | 4.0 | 11.0 | 0.00 | 0.03 | 0.03 | 66 | 1012.0 |
| 20260508152511 | 57 | 335 | 3.0 | 8.0 | 0.00 | 0.03 | 0.03 | 67 | 1012.0 |
| 20260508152011 | 56 | 3 | 2.0 | 6.0 | 0.00 | 0.03 | 0.03 | 67 | 1012.0 |
| 20260508151512 | 56 | 252 | 2.0 | 7.0 | 0.00 | 0.03 | 0.03 | 67 | 1012.1 |
| 20260508151010 | 56 | 173 | 4.0 | 7.0 | 0.00 | 0.03 | 0.03 | 67 | 1012.1 |
| 20260508150505 | 55 | 9 | 4.0 | 7.0 | 0.00 | 0.03 | 0.03 | 67 | 1012.1 |
| 20260508150010 | 55 | 223 | 2.0 | 5.0 | 0.00 | 0.03 | 0.03 | 68 | 1012.1 |
| 20260508145504 | 55 | 97 | 2.0 | 9.0 | 0.00 | 0.03 | 0.03 | 70 | 1012.2 |